Location: Linz
(48.3300°N, 14.3000°E)
Time: 14:26:16
(UTC+01:00)

YUBILEINY - Visible Passes

Search period start: 20 February 2019 00:00
Search period end: 02 March 2019 00:00
Orbit: 1478 x 1509 km, 82.5° (Epoch: 20 February)

Date Brightness Start Highest point End Pass type
(mag) Time Alt. Az. Time Alt. Az. Time Alt. Az.
20 Feb ? 03:21:02 10° SE 03:27:44 26° ENE 03:34:27 10° NNE visible
20 Feb ? 05:14:53 10° SSW 05:23:35 79° W 05:32:22 10° N visible
21 Feb ? 02:35:12 10° E 02:39:09 14° ENE 02:43:06 10° NE visible
21 Feb ? 04:25:34 10° S 04:34:04 64° E 04:42:40 10° NNE visible
21 Feb ? 06:23:47 10° SW 06:31:30 34° WNW 06:39:17 10° N visible
21 Feb ? 18:28:17 10° NW 18:30:59 12° WNW 18:33:40 10° W visible
22 Feb ? 03:37:11 10° SSE 03:44:55 38° E 03:52:41 10° NNE visible
22 Feb ? 05:32:54 10° SSW 05:41:24 56° WNW 05:49:58 10° N visible
23 Feb ? 02:49:58 10° ESE 02:56:05 22° ENE 03:02:12 10° NNE visible
23 Feb ? 04:42:57 10° S 04:51:39 90° E 05:00:26 10° N visible
24 Feb ? 02:05:17 10° E 02:07:36 11° ENE 02:09:53 10° NE visible
24 Feb ? 03:53:53 10° SSE 04:02:16 55° E 04:10:40 10° NNE visible
24 Feb ? 05:51:23 10° SW 05:59:23 40° WNW 06:07:30 10° N visible
25 Feb ? 03:05:49 10° SE 03:13:10 33° E 03:20:35 10° NNE visible
25 Feb ? 05:00:47 10° SSW 05:09:24 65° WNW 05:18:06 10° N visible
26 Feb ? 02:19:04 10° ESE 02:24:27 18° ENE 02:29:50 10° NE visible
26 Feb ? 04:11:06 10° S 04:19:46 79° E 04:28:30 10° NNE visible
26 Feb ? 06:10:23 10° WSW 06:17:35 28° WNW 06:24:52 10° N visible
27 Feb ? 03:22:18 10° SSE 03:30:27 47° E 03:38:39 10° NNE visible
27 Feb ? 05:19:04 10° SW 05:27:19 46° WNW 05:35:40 10° N visible
28 Feb ? 02:34:34 10° SE 02:41:29 28° E 02:48:26 10° NNE visible
28 Feb ? 04:28:45 10° SSW 04:37:26 75° WNW 04:46:13 10° N visible
01 Mar ? 01:48:25 10° ESE 01:52:51 15° ENE 01:57:17 10° NE visible
01 Mar ? 03:39:53 12° S 03:47:53 68° E 03:56:33 10° NNE visible
01 Mar ? 05:37:50 10° SW 05:45:25 32° WNW 05:53:06 10° N visible
